Taba International, Egypt

2:02 AM EET on December 18, 2017 (GMT +0200)
Taba International

Weather History for HETB - August, 2013

Change the Weather History Date:

Wednesday, August 7, 2013

  Actual Average Record
Temperature  
Mean Temperature 82 °F -  
Max Temperature 95 °F - - ()
Min Temperature 69 °F - - ()
Cooling Degree Days 17    
Growing Degree Days 32 (Base 50)    
Moisture  
Dew Point 42 °F    
Average Humidity 25    
Maximum Humidity 43    
Minimum Humidity 12    
Precipitation  
Precipitation 0.00 in - - ()
Sea Level Pressure  
Sea Level Pressure 29.88 in    
Wind  
Wind Speed 3 mph ()    
Max Wind Speed 10 mph    
Max Gust Speed -    
T = Trace of Precipitation, MM = Missing Value Source: Averaged Metar Reports

Daily Weather History Graph

Daily Weather History Graph

Search for Another Location

Airport or City:

Trip Planner

Search our weather history database for the weather conditions in past years. The results will help you decide how hot, cold, wet, or windy it might be!

Date:

Astronomy

Aug. 07, 2013 Rise Set
Actual Time 5:04 AM EET 6:28 PM EET
Civil Twilight 4:38 AM EET 6:54 PM EET
Nautical Twilight 4:08 AM EET 7:24 PM EET
Astronomical Twilight 3:36 AM EET 7:56 PM EET
Moon 5:25 AM EET (8/7) 6:34 PM EET (8/7)
Length of Visible Light 14h 15m
Length of Day
13h 24m
New Moon, 0% of the Moon is Illuminated
Aug 7
New Moon
Aug 14
First Quarter
Aug 21
Full
Aug 28
Last Quarter
Sep 5
New

Hourly Weather History & Observations

Time (EET) Temp. Dew Point Humidity Pressure Visibility Wind Dir Wind Speed Gust Speed Precip Events Conditions
12:00 AM 77.0 °F 46.4 °F 34% 29.86 in - WNW 5.8 mph - N/A   Clear
1:00 AM 75.2 °F 46.4 °F 36% 29.86 in - WNW 3.5 mph - N/A   Clear
2:00 AM 73.4 °F 46.4 °F 38% 29.86 in - WNW 3.5 mph - N/A   Clear
5:00 AM 69.8 °F 46.4 °F 43% 29.86 in - Calm Calm - N/A   Clear
6:00 AM 73.4 °F 44.6 °F 36% 29.86 in - Calm Calm - N/A   Clear
7:00 AM 75.2 °F 46.4 °F 36% 29.86 in - Calm Calm - N/A   Clear
8:00 AM 80.6 °F 42.8 °F 26% 29.89 in - Calm Calm - N/A   Clear
9:00 AM 80.6 °F 42.8 °F 26% 29.89 in - Calm Calm - N/A   Clear
10:00 AM 87.8 °F 37.4 °F 17% 29.89 in - Calm Calm - N/A   Clear
11:00 AM 89.6 °F 35.6 °F 15% 29.89 in - Calm Calm - N/A   Clear
12:00 PM 93.2 °F 37.4 °F 14% 29.89 in - Calm Calm - N/A   Clear
1:00 PM 95.0 °F 35.6 °F 12% 29.89 in - West 6.9 mph - N/A   Clear
2:00 PM 95.0 °F 35.6 °F 12% 29.86 in - Variable 2.3 mph - N/A   Clear
5:00 PM 95.0 °F 41.0 °F 15% 29.83 in - WNW 5.8 mph - N/A   Clear
6:00 PM 91.4 °F 37.4 °F 15% 29.86 in - NNW 10.4 mph - N/A   Clear
7:00 PM 89.6 °F 37.4 °F 16% 29.86 in - NNW 10.4 mph - N/A   Clear
8:00 PM 87.8 °F 39.2 °F 18% 29.89 in - NW 6.9 mph - N/A   Clear
10:00 PM 80.6 °F 46.4 °F 30% 29.92 in - WNW 8.1 mph - N/A   Clear
11:00 PM 78.8 °F 46.4 °F 32% 29.92 in - WNW 8.1 mph - N/A   Clear